Flag for Chile Weather past 2 weeks in Temuco, Chile

Now
57 °F

Fog.


Feels Like: 56 °F
Forecast: 49 / 56 °F
Wind: 6 mph from Northwest

Location: Concepcion Airport

Current Time: Aug 29, 2015 at 10:17:06 AM

Latest Report: Aug 29, 2015 at 10:00 AM


Visibility: 2 mi

Pressure: 30.01 "Hg

Humidity: 94%

Dew point: 55 °F

Location of TemucoLocation

Historic Weather in Temuco — Graph

°F

Temuco temperature yesterday

Maximum temperature yesterday: 57 °F (at 9:00 AM)
Minimum temperature yesterday: 54 °F (at 12:00 AM)
Average temperature yesterday: 56 °F

Past Weeks' High & Low Weather Summary

 TemperatureHumidityPressure
High64 °F (Aug 19, 4:00 PM)100% (Aug 14, 9:00 AM)30.30 "Hg (Aug 14, 9:00 AM)
Low37 °F (Aug 17, 6:00 AM)44% (Aug 16, 1:00 PM)29.71 "Hg (Aug 25, 7:00 AM)
Average53 °F86%30.04 "Hg
* Reported Aug 14 9:00 AM — Aug 29 9:00 AM, Temuco, Weather by CustomWeather, © 2015

Note: Actual official high and low records may vary slightly from our data, if they occured in-between our weather recording intervals... More about our weather records

Advertising

Temuco weather history for previous 24 hours

 ConditionsComfort  
Time TempWeatherWind HumidityBarometerVisibility
9:00 AM
Sat, Aug 29
55 °FDrizzle. Fog.7 mph100%29.98 "Hg1 mi
8:00 AM55 °FSprinkles. Partly sunny.5 mph100%29.98 "Hg2 mi
7:00 AM55 °FSprinkles. Passing clouds.6 mph100%29.95 "Hg2 mi
6:00 AM55 °FDrizzle. Low clouds.8 mph100%29.95 "Hg2 mi
5:00 AM55 °FDrizzle. Low clouds.9 mph100%29.95 "Hg1 mi
4:00 AM55 °FFog.7 mph100%29.95 "Hg2 mi
3:00 AM55 °FDrizzle. Mostly cloudy.8 mph100%29.95 "Hg2 mi
2:00 AM55 °FDrizzle. Fog.10 mph100%29.95 "Hg1 mi
1:00 AM55 °FDrizzle. Fog.8 mph100%29.95 "Hg1 mi
12:00 AM55 °FDrizzle. Fog.9 mph100%29.95 "Hg1 mi
11:00 PM
Fri, Aug 28
55 °FDrizzle. Fog.8 mph100%29.92 "Hg1 mi
10:00 PM55 °FDrizzle. Fog.8 mph100%29.92 "Hg1 mi
9:00 PM57 °FDrizzle. Low clouds.6 mph94%29.92 "Hg1 mi
8:00 PM57 °FFog.8 mph94%29.92 "Hg3 mi
7:00 PM57 °FDrizzle. Mostly cloudy.9 mph94%29.89 "Hg1 mi
6:00 PM57 °FFog.13 mph100%29.89 "Hg2 mi
5:00 PM57 °FDrizzle. Cloudy.14 mph94%29.89 "Hg1 mi
4:00 PM57 °FDrizzle. Cloudy.13 mph100%29.89 "Hg1 mi
3:00 PM57 °FSprinkles. Cloudy.15 mph100%29.89 "Hg3 mi
2:00 PM57 °FLight rain. Mostly cloudy.16 mph94%29.92 "Hg3 mi
1:00 PM57 °FLight rain. More clouds than sun.14 mph94%29.92 "Hg2 mi
12:00 PM57 °FLight rain. Mostly cloudy.16 mph100%29.89 "Hg2 mi
11:00 AM57 °FLight rain. Mostly cloudy.18 mph94%29.89 "Hg3 mi
10:00 AM57 °FRain. Mostly cloudy.17 mph94%29.86 "Hg1 mi
Weather by CustomWeather, © 2015

See weather overviewHow to use our weather pages